SCP
0 0 0 0 0 0 0 0 0 0 0 0 0 0 0 0 0 0 0 0 0 0 0 0 0 0 0 0 0 0 0 0 0 0 0 0 0 0 0 0 0 0 0
0 0 0 0 0 0 0 0 0 0 0 0 0 0 0 0 0 0 0 0 0 0 0 0 0 0 0 0 0 0 0 0 0 0 0 0 0 0 0 0 0 0 0
0 0 0 0 0 0 0 0 0 0 0 0 0 0 0 0 0 0 0 0 0 0 0 0 0 0 0 0 0 0 0 0 0 0 0 0 0 0 0 0 0 0 0
0 0 0 0 0 0 0 0 0 0 0 0 0 0 0 0 0 0 0 0 0 0 0 0 0 0 0 0 0 0 0 0 0 0 0 0 0 0 0 0 0 0 0
0 0 0 0 0 0 0 0 0 0 0 0 0 0 0 0 0 0 0 0 0 0 0 0 0 0 0 0 0 0 0 0 0 0 0 0 0 0 0 0 0 0 0
0 0 0 0 0 0 0 0 0 0 0 0 0 0 0 0 0 0 0 0 0 0 0 0 0 0 0 0 0 0 0 0 0 0 0 0 0 0 0 0 0 0 0
0 0 0 0 0 0 0 0 0 0 0 0 0 0 0 0 0 0 0 0 0 0 0 0 0 0 0 0 0 0 0 0 0 0 0 0 0 0 0 0 0 0 0
0 0 0 0 0 0 0 0 0 0 0 0 0 0 0 0 0 0 0 0 0 0 0 0 0 0 0 0 0 0 0 0 0 0 0 0 0 0 0 0 0 0 0
0 0 0 0 0 0 0 0 0 0 0 0 0 0 0 0 0 0 0 0 0 0 0 0 0 0 0 0 0 0 0 0 0 0 0 0 0 0 0 0 0 0 0
0 0 0 0 0 0 0 0 0 0 0 0 0 0 0 0 0 0 0 0 0 0 0 0 0 0 0 0 0 0 0 0 0 0 0 0 0 0 0 0 0 0 0
0 0 0 0 0 0 0 0 0 0 0 0 0 0 0 0 0 0 0 0 0 0 0 0 0 0 0 0 0 0 0 0 0 0 0 0 0 0 0 0 0 0 0
0 0 0 0 0 0 0 0 0 0 0 0 0 0 0 0 0 0 0 0 0 0 0 0 0 0 0 0 0 0 0 0 0 0 0 0 0 0 0 0 0 0 0
0 0 0 0 0 0 0 0 0 0 0 0 0 0 0 0 0 0 0 0 0 0 0 0 0 0 0 0 0 0 0 0 0 0 0 0 0 0 0 0 0 0 0
0 0 0 0 0 0 0 0 0 0 0 0 0 0 0 0 0 0 0 0 0 0 0 0 0 0 0 0 0 0 0 0 0 0 0 0 0 0 0 0 0 0 0
0 0 0 0 0 0 0 0 0 0 0 0 0 0 0 0 0 0 0 0 0 0 0 0 0 0 0 0 0 0 0 0 0 0 0 0 0 0 0 0 0 0 0
0 0 0 0 0 0 0 0 0 0 0 0 0 0 0 0 0 0 0 0 0 0 0 0 0 0 0 0 0 0 0 0 0 0 0 0 0 0 0 0 0 0 0
0 0 0 0 0 0 0 0 0 0 0 0 0 0 0 0 0 0 0 0 0 0 0 0 0 0 0 0 0 0 0 0 0 0 0 0 0 0 0 0 0 0 0
1 0 0 0 0 0 0 0 0 0 0 0 0 0 0 0 0 0 0 0 0 0 0 0 0 0 0 0 0 0 0 0 0 0 0 0 0 0 0 0 0 0 0
1 1 1 0 0 0 0 0 0 0 0 0 0 0 0 0 0 0 0 0 0 0 0 0 0 0 0 0 0 0 0 0 0 0 0 0 0 0 0 0 0 0 0
1 1 1 1 1 1 0 1 1 1 0 0 0 0 0 0 0 0 0 0 0 0 0 0 0 0 0 0 0 0 0 0 0 0 0 0 0 0 0 0 0 0 0
1 1 1 1 1 1 0 1 1 1 1 0 0 0 0 0 0 0 0 0 0 0 0 0 0 0 0 0 0 0 0 0 0 0 0 0 0 0 0 0 0 0 0
1 1 1 1 1 1 0 0 0 1 1 1 0 0 0 0 0 0 0 0 0 0 0 0 0 0 0 0 0 0 0 0 0 0 0 0 0 0 0 0 0 0 0
1 1 1 1 1 0 0 0 0 0 1 1 1 0 0 0 0 0 0 0 0 0 0 0 0 0 0 0 0 0 0 0 0 0 0 0 0 0 0 0 0 0 0
1 1 1 1 1 0 0 0 0 0 0 1 0 0 0 0 0 0 0 0 0 0 0 0 0 0 0 0 0 0 0 0 0 0 0 0 0 0 0 0 0 0 0
1 1 1 0 0 0 0 0 0 0 0 0 0 0 0 0 0 0 0 0 0 0 0 0 0 0 0 0 0 0 0 0 0 0 0 0 0 0 0 0 0 0 0
1 1 0 0 0 0 0 0 0 0 0 0 0 0 0 0 0 0 0 0 0 0 0 0 0 0 0 0 0 0 0 0 0 0 0 0 0 0 0 0 0 0 0
Wind_Speed
4 3 2 2 2 2 2 2 2 2 2 2 2 3 4 4 4 4 4 12 13 13 14 14 14 13 13 12 12 11 11 10 10 9 9 9 9 9 9 9 8 7 7
4 3 3 3 2 2 3 3 3 3 2 1 1 2 3 3 4 4 3 7 12 12 13 14 14 14 13 13 12 12 11 11 10 10 10 9 9 9 10 10 9 8 8
4 4 3 3 3 3 3 2 2 2 2 1 1 1 2 3 4 4 4 4 5 10 12 13 13 13 13 13 13 12 11 11 10 10 10 9 9 9 10 10 9 9 8
5 4 3 3 2 2 2 2 2 2 1 1 1 1 1 2 3 4 4 4 3 4 8 12 12 12 12 13 13 13 12 11 10 10 10 10 9 9 9 10 10 9 8
5 4 3 2 2 2 2 2 2 2 2 1 1 1 1 1 3 4 4 5 5 5 4 8 12 12 13 13 13 13 13 12 11 10 11 11 11 10 9 9 9 9 8
5 4 3 3 2 2 2 1 2 2 2 2 1 0 1 2 2 2 4 4 4 5 5 6 5 8 13 13 13 13 13 13 11 11 11 11 11 10 10 10 10 9 9
5 4 3 2 3 3 3 3 2 2 1 1 1 1 2 1 1 2 2 3 4 5 5 5 4 4 5 11 12 13 13 13 12 11 11 11 10 10 10 10 10 10 9
4 5 4 3 3 3 3 3 3 2 2 2 2 1 1 3 2 2 2 3 3 3 4 6 5 5 4 3 6 12 13 13 13 13 12 11 11 10 10 11 11 11 10
4 4 4 4 3 3 3 3 3 4 3 2 2 3 2 2 2 2 2 2 2 2 2 3 5 5 5 4 4 8 11 11 13 13 12 11 11 11 11 11 11 11 11
4 4 4 4 3 3 3 3 3 3 3 2 2 2 2 3 2 1 2 2 2 2 3 3 3 4 4 3 4 7 10 11 12 13 12 12 11 11 11 11 12 12 11
3 3 3 3 3 3 3 3 3 3 3 3 2 2 1 1 2 2 2 2 2 2 2 3 3 3 3 4 4 6 8 9 10 11 12 12 11 12 12 12 12 12 12
2 2 2 3 3 3 3 4 3 3 3 3 2 2 2 2 2 2 2 2 2 2 2 2 2 3 3 4 6 8 8 9 9 10 11 12 12 12 12 12 13 12 12
2 3 3 3 3 3 3 3 3 3 3 3 4 3 2 3 2 2 2 2 2 2 2 2 2 3 3 3 4 8 9 9 9 10 10 11 12 12 12 12 12 12 12
4 3 3 3 3 3 3 3 3 3 2 3 3 3 2 2 2 2 3 2 1 2 2 3 2 2 2 2 4 7 5 8 9 9 9 10 10 10 11 11 11 11 11
3 4 4 3 3 3 3 3 2 3 3 3 3 3 2 2 2 2 3 3 3 2 3 3 2 2 2 2 4 3 3 7 8 9 9 9 10 10 10 11 10 10 10
3 3 4 3 3 3 3 3 2 2 2 3 2 2 2 2 2 2 3 3 3 4 3 3 3 2 2 3 3 3 4 6 7 8 9 9 9 10 10 11 11 10 10
4 4 4 4 4 3 2 2 3 2 2 3 3 3 3 2 2 2 2 2 2 3 3 3 2 2 2 2 2 2 2 3 3 6 7 8 8 8 9 9 10 10 10
4 4 4 4 4 3 3 3 3 3 3 3 3 3 3 2 2 2 2 2 3 3 3 3 2 1 2 3 2 2 2 2 2 5 6 7 7 8 8 8 8 9 10
4 4 4 4 3 3 3 3 4 3 3 3 3 3 3 2 3 2 2 3 2 2 2 2 2 1 1 1 1 2 2 2 3 3 4 6 6 6 7 8 8 9 9
4 4 4 4 4 3 3 3 3 3 3 3 3 3 3 3 4 3 3 3 2 2 1 1 2 1 1 1 1 1 2 2 2 2 2 3 4 5 6 7 7 7 8
4 4 3 3 3 3 3 3 3 3 3 3 2 2 3 3 4 3 3 2 2 2 2 2 2 1 2 1 2 2 2 2 2 1 1 1 1 2 3 6 7 8 8
3 3 4 4 4 4 4 5 4 3 3 3 3 3 3 3 2 2 3 3 4 4 3 3 2 3 4 4 3 2 2 1 2 2 1 2 1 2 3 3 5 7 8
4 4 4 4 4 5 5 5 5 4 3 4 4 3 3 2 2 2 2 3 3 3 5 5 4 5 4 4 3 3 3 3 4 3 1 2 1 3 3 3 5 6 7
4 4 3 3 3 4 5 5 5 4 3 4 4 4 4 3 2 2 2 2 2 3 4 4 4 5 4 4 5 5 5 3 2 2 2 2 2 2 2 2 4 6 6
3 3 3 3 3 3 4 4 4 2 2 2 3 2 3 3 4 3 2 2 3 4 5 5 5 5 5 5 4 2 1 1 2 2 1 2 2 1 2 2 3 5 6
4 3 2 2 3 2 3 3 3 2 1 2 2 2 3 3 3 3 3 3 4 4 3 3 3 3 3 3 4 4 4 3 2 2 2 2 2 1 1 2 2 2 2
Wind_Direction
159 159 162 164 172 169 176 187 195 195 210 207 191 172 175 170 174 176 187 191 192 195 195 195 196 198 200 201 202 204 203 204 204 206 208 209 209 206 203 204 207 207 208
158 161 166 170 182 183 190 190 190 187 197 182 178 178 185 177 174 180 184 193 198 199 201 201 201 201 202 204 205 206 209 212 209 211 211 212 211 210 209 210 211 210 210
155 157 163 172 185 180 176 171 175 155 165 172 190 207 202 201 183 185 189 193 199 203 203 204 205 205 206 207 207 208 211 210 209 210 211 212 213 212 211 212 212 210 212
158 153 157 180 184 163 156 160 165 154 168 176 187 219 221 214 199 193 192 191 195 200 205 207 210 211 210 211 210 209 211 212 212 213 212 211 211 212 214 215 214 212 214
163 156 163 181 174 163 171 185 168 164 169 185 195 216 236 225 211 202 200 197 198 200 199 209 212 211 212 214 213 212 212 212 213 214 214 213 214 214 213 213 212 210 211
167 161 166 182 170 158 172 173 168 166 169 179 194 290 276 247 227 210 208 206 205 208 205 208 209 214 215 216 217 217 217 216 214 214 215 214 215 215 214 214 212 210 210
173 168 177 182 179 179 187 180 162 160 176 140 100 350 331 310 247 231 214 204 209 214 203 204 205 206 215 218 220 220 222 220 217 217 216 216 216 214 212 213 212 210 210
180 181 180 186 184 173 175 178 160 159 193 166 143 117 336 333 317 251 222 211 213 210 206 209 205 204 209 210 218 221 224 224 221 220 217 215 214 213 213 214 213 212 213
185 185 181 184 185 179 187 195 180 174 192 208 175 156 165 229 291 309 269 232 219 207 218 218 211 210 210 211 217 222 221 222 223 222 220 217 215 213 214 215 216 216 217
187 186 184 186 187 187 191 198 186 183 176 198 216 200 183 170 174 291 314 290 240 214 220 228 221 214 208 209 215 218 220 221 221 222 222 220 218 216 214 216 219 219 219
194 188 188 185 187 194 198 199 190 187 184 187 192 194 193 180 164 169 264 304 310 266 236 224 220 217 209 210 217 220 221 222 224 226 226 224 221 219 219 220 221 222 221
204 203 189 193 195 195 199 202 199 194 201 194 191 182 168 178 193 182 210 252 274 279 266 242 221 218 219 215 223 221 219 221 224 229 231 228 225 223 222 223 224 225 224
206 215 206 203 205 204 198 198 194 200 203 199 203 204 195 205 184 174 179 222 258 280 288 267 235 219 222 216 228 225 223 221 224 229 233 234 231 226 223 221 222 222 223
201 198 199 205 211 209 203 198 201 206 203 209 214 205 204 215 196 183 179 175 233 283 272 264 265 230 230 223 234 224 230 224 227 230 233 232 228 226 225 221 222 221 220
188 186 189 198 210 211 209 192 201 212 205 208 215 208 210 223 211 207 192 180 179 223 255 252 251 250 238 235 239 227 231 231 228 227 229 229 227 225 224 222 221 219 218
191 179 182 191 205 213 211 196 200 218 207 220 212 207 223 233 230 222 210 203 190 194 231 242 236 256 250 247 244 234 235 234 232 232 230 229 229 228 224 223 221 217 216
183 183 179 188 198 205 198 187 202 203 215 231 225 214 227 217 219 229 215 205 205 191 223 258 241 252 237 260 276 266 253 239 240 233 231 228 228 228 225 224 221 218 218
184 183 176 182 198 201 196 197 210 209 207 225 230 223 237 226 222 224 214 217 217 208 202 243 258 244 238 240 248 269 272 256 247 244 235 229 230 229 225 221 219 218 217
187 188 181 184 197 200 198 206 206 204 207 222 225 221 231 221 234 236 228 227 225 224 204 216 251 245 250 251 272 284 280 286 270 261 240 234 234 231 226 223 221 220 218
185 191 193 193 197 196 195 204 207 205 211 221 222 219 225 220 227 230 230 231 224 221 214 212 245 261 260 261 202 258 291 287 274 280 265 245 236 231 230 227 222 216 215
191 194 194 203 205 204 205 199 210 212 210 221 231 233 236 229 223 222 224 223 218 215 212 216 238 244 253 240 231 231 249 273 280 253 270 269 244 239 233 230 223 216 209
197 190 200 208 213 222 219 207 200 214 210 213 227 242 246 229 230 242 242 224 205 204 213 214 228 229 236 229 224 222 219 237 272 255 207 260 221 239 239 228 225 215 209
196 202 209 208 217 228 220 212 213 207 214 220 225 228 240 240 212 236 272 272 252 232 206 199 217 232 231 223 212 223 221 220 232 225 179 252 249 254 256 237 219 209 205
193 201 206 211 219 232 226 224 221 211 215 225 227 217 217 224 224 215 239 266 267 257 233 211 215 232 234 227 208 210 218 228 259 240 177 221 243 253 260 251 223 211 209
191 197 197 201 217 245 237 221 207 207 227 239 236 219 204 211 231 214 202 234 266 271 259 246 242 246 250 247 218 183 191 183 251 252 208 185 234 258 267 260 242 219 215
188 189 193 201 208 233 240 215 180 177 220 259 263 249 230 224 235 212 201 213 245 261 273 290 290 283 265 257 225 199 193 194 211 244 221 175 202 162 287 271 251 241 227